User: anonymous   Login
Location: *
(32.8667°N, 13.1833°E)
Time: 08:51:08
(UTC+00:00)
Language:

Cosmos 44 Rocket - Orbit

View from above orbital plane
View from above orbital plane
View from above satellite
View from above satellite

Ground track
Ground track

The orbit data is extracted from the following two-line orbital elements,

1   877U 64053B   19266.84270465 -.00000075 +00000-0 +95000-5 0  9992
2   877 065.0795 030.9648 0058543 159.1765 201.1739 14.59371269922446
Epoch (UTC): 23 September 2019 20:13:29
Eccentricity: 0.0058543
inclination: 65.0795°
perigee height: 654 km
apogee height: 736 km
right ascension of ascending node: 30.9648°
argument of perigee: 159.1765°
revolutions per day: 14.59371269
mean anomaly at epoch: 201.1739°
orbit number at epoch: 92244

The dashed part of the orbit path shows where the satellite is in the earth's shadow,  

DLR